Total_Precipitation_Accumulation
2.19 2.26 2.19 2.16 2.09 2.01 1.87 1.70 1.66 1.60 1.49 1.41 1.36 1.32 1.30 1.33 1.33 1.36 1.34 1.29 1.25 1.21 1.18 1.16 1.18 1.24 1.32 1.32 1.36 1.49 1.70 1.90 1.94 1.60 1.47 1.56 1.68 1.63 1.65 1.56 1.44 1.39 1.42
1.80 1.96 2.03 1.94 1.77 1.67 1.60 1.53 1.44 1.38 1.33 1.29 1.19 1.14 1.11 1.09 1.08 1.08 1.11 1.12 1.11 1.06 1.07 1.13 1.13 1.16 1.22 1.29 1.34 1.40 1.54 1.79 1.95 1.85 1.64 1.64 1.70 1.68 1.75 1.69 1.46 1.30 1.36
1.58 1.61 1.62 1.56 1.49 1.42 1.41 1.41 1.32 1.26 1.20 1.13 1.10 1.08 1.03 1.01 0.96 0.93 0.96 1.03 1.03 0.98 1.01 1.07 1.13 1.27 1.25 1.27 1.33 1.37 1.48 1.62 1.90 1.96 1.77 1.75 1.81 1.84 1.97 1.81 1.62 1.57 1.29
1.33 1.36 1.35 1.37 1.36 1.31 1.23 1.23 1.22 1.20 1.15 1.10 1.09 1.02 0.97 0.93 0.92 0.90 0.91 0.95 0.96 0.96 1.00 1.07 1.12 1.25 1.32 1.37 1.37 1.41 1.48 1.62 1.79 1.95 1.90 1.88 1.95 2.00 2.03 1.96 1.83 1.67 1.48
1.27 1.21 1.24 1.31 1.33 1.29 1.28 1.26 1.21 1.14 1.07 1.06 1.06 1.00 0.95 0.89 0.85 0.85 0.85 0.88 0.97 0.99 0.97 0.97 1.01 1.13 1.24 1.22 1.15 1.20 1.38 1.61 1.67 1.86 1.91 1.94 1.95 2.03 1.96 1.76 1.69 1.64 1.48
1.28 1.24 1.24 1.26 1.23 1.22 1.23 1.20 1.16 1.12 1.10 1.06 1.03 0.99 0.93 0.77 0.80 0.83 0.82 0.87 0.92 0.94 0.94 0.93 0.87 0.87 0.87 0.89 0.93 1.00 1.15 1.43 1.76 1.97 1.93 1.91 1.80 1.75 1.79 1.74 1.75 1.75 1.68
1.41 1.30 1.26 1.23 1.16 1.12 1.04 1.03 1.10 1.11 1.08 1.02 0.95 0.95 0.93 0.84 0.78 0.73 0.77 0.84 0.91 0.97 1.01 0.98 0.78 0.68 0.79 0.85 0.90 0.95 1.07 1.25 1.56 1.93 2.02 1.81 1.75 1.71 1.78 1.78 1.84 1.88 1.74
1.37 1.25 1.19 1.17 1.11 1.10 1.08 1.08 1.09 1.08 1.04 1.05 1.01 0.99 0.99 0.87 0.77 0.70 0.73 0.79 0.90 0.93 0.94 0.96 0.97 0.88 0.84 0.93 0.99 1.06 1.17 1.30 1.41 1.53 1.85 1.66 1.47 1.50 1.61 1.69 1.81 1.83 1.72
1.38 1.19 1.08 1.05 1.00 1.00 1.03 1.05 1.02 1.02 0.99 0.96 0.96 0.97 1.03 0.96 0.83 0.73 0.68 0.74 0.84 0.85 0.82 0.82 0.82 0.83 0.92 1.10 1.21 1.39 1.50 1.60 1.51 1.67 1.84 1.78 1.64 1.59 1.49 1.60 1.87 1.92 1.81
1.18 1.05 0.99 0.98 0.91 0.91 0.94 0.94 0.92 0.92 0.93 0.90 0.89 0.93 0.96 0.88 0.74 0.62 0.59 0.65 0.78 0.82 0.86 0.83 0.77 0.72 0.85 1.03 1.27 1.57 1.71 1.77 1.63 1.74 2.02 2.05 1.88 1.88 1.87 1.79 1.95 2.01 1.92
0.98 0.92 0.94 0.92 0.84 0.80 0.83 0.85 0.87 0.83 0.86 0.88 0.85 0.85 0.80 0.68 0.60 0.51 0.50 0.55 0.66 0.77 0.84 0.89 0.86 0.79 0.84 1.06 1.27 1.47 1.64 1.68 1.72 1.80 1.84 1.87 1.96 1.99 1.99 1.94 1.92 1.91 1.88
0.89 0.86 0.90 0.92 0.69 0.60 0.70 0.73 0.76 0.84 0.85 0.86 0.85 0.78 0.66 0.60 0.50 0.47 0.47 0.48 0.52 0.69 0.87 0.89 0.88 0.85 0.90 1.11 1.26 1.51 1.74 1.82 1.79 1.83 1.71 1.61 1.59 1.62 1.70 1.70 1.68 1.64 1.59
0.86 0.87 0.85 0.83 0.74 0.66 0.68 0.69 0.73 0.79 0.78 0.76 0.76 0.71 0.60 0.57 0.51 0.45 0.47 0.50 0.53 0.61 0.77 0.85 0.86 0.86 0.99 1.29 1.47 1.65 1.83 1.95 1.98 1.84 1.63 1.51 1.39 1.35 1.36 1.43 1.50 1.50 1.42
0.87 0.87 0.86 0.82 0.74 0.69 0.70 0.64 0.65 0.67 0.66 0.64 0.65 0.66 0.62 0.59 0.52 0.48 0.52 0.57 0.61 0.64 0.75 0.89 0.98 1.01 1.16 1.46 1.68 1.87 1.94 1.87 1.73 1.66 1.55 1.46 1.32 1.26 1.29 1.24 1.28 1.33 1.35
0.85 0.81 0.79 0.70 0.67 0.67 0.62 0.51 0.48 0.46 0.47 0.53 0.59 0.58 0.56 0.53 0.49 0.51 0.52 0.53 0.58 0.60 0.69 0.89 1.07 1.18 1.34 1.53 1.72 1.80 1.79 1.69 1.59 1.41 1.34 1.39 1.36 1.28 1.25 1.18 1.17 1.20 1.27
0.79 0.76 0.69 0.63 0.59 0.56 0.59 0.51 0.42 0.39 0.37 0.36 0.39 0.39 0.41 0.46 0.48 0.49 0.49 0.51 0.55 0.61 0.69 0.91 1.06 1.15 1.31 1.52 1.66 1.63 1.55 1.48 1.37 1.26 1.22 1.19 1.18 1.13 1.13 1.11 1.04 1.04 1.11
0.69 0.66 0.63 0.60 0.57 0.54 0.57 0.60 0.57 0.42 0.33 0.32 0.35 0.36 0.39 0.40 0.38 0.39 0.43 0.48 0.51 0.56 0.66 0.88 1.02 1.14 1.33 1.45 1.48 1.44 1.42 1.33 1.24 1.20 1.17 1.08 1.02 1.00 0.98 0.95 0.94 0.96 0.94
0.51 0.49 0.50 0.54 0.55 0.54 0.50 0.49 0.50 0.51 0.49 0.43 0.38 0.36 0.34 0.34 0.32 0.32 0.37 0.42 0.47 0.51 0.65 0.85 1.00 1.09 1.19 1.27 1.35 1.38 1.35 1.25 1.16 1.14 1.19 1.15 1.05 0.97 0.90 0.88 0.87 0.82 0.82
0.41 0.44 0.40 0.41 0.45 0.46 0.44 0.44 0.44 0.46 0.48 0.47 0.43 0.37 0.34 0.33 0.33 0.36 0.40 0.43 0.51 0.59 0.68 0.81 0.92 1.01 1.05 1.05 1.12 1.18 1.19 1.18 1.12 1.08 1.07 1.08 1.01 0.93 0.84 0.77 0.73 0.64 0.64
0.31 0.29 0.29 0.31 0.34 0.38 0.38 0.40 0.41 0.40 0.41 0.42 0.41 0.37 0.37 0.42 0.45 0.48 0.47 0.44 0.50 0.59 0.68 0.77 0.85 0.90 0.89 0.88 0.87 0.91 0.95 0.99 0.98 0.94 0.91 0.91 0.89 0.81 0.75 0.70 0.68 0.66 0.65
0.25 0.24 0.26 0.25 0.26 0.27 0.26 0.27 0.31 0.33 0.35 0.38 0.36 0.34 0.43 0.48 0.53 0.55 0.54 0.53 0.55 0.58 0.61 0.65 0.69 0.72 0.71 0.72 0.73 0.75 0.80 0.84 0.85 0.84 0.82 0.79 0.76 0.74 0.67 0.63 0.61 0.58 0.56
0.22 0.23 0.25 0.25 0.23 0.21 0.20 0.21 0.24 0.27 0.28 0.33 0.36 0.38 0.47 0.48 0.52 0.57 0.60 0.60 0.59 0.58 0.55 0.56 0.56 0.55 0.57 0.60 0.60 0.61 0.64 0.67 0.73 0.78 0.79 0.74 0.66 0.63 0.57 0.54 0.55 0.56 0.55
0.24 0.24 0.26 0.27 0.23 0.21 0.21 0.22 0.23 0.24 0.26 0.28 0.31 0.36 0.44 0.51 0.57 0.62 0.64 0.62 0.61 0.58 0.54 0.53 0.55 0.55 0.55 0.53 0.52 0.56 0.59 0.61 0.66 0.74 0.78 0.73 0.63 0.57 0.52 0.49 0.51 0.56 0.55
0.25 0.26 0.27 0.28 0.25 0.22 0.22 0.23 0.24 0.26 0.28 0.31 0.34 0.36 0.41 0.49 0.55 0.62 0.68 0.66 0.62 0.60 0.57 0.54 0.55 0.54 0.52 0.49 0.46 0.43 0.43 0.49 0.57 0.65 0.68 0.68 0.58 0.51 0.46 0.45 0.46 0.47 0.51
0.28 0.27 0.26 0.25 0.25 0.25 0.23 0.23 0.24 0.26 0.27 0.28 0.29 0.31 0.34 0.39 0.44 0.53 0.63 0.67 0.68 0.67 0.63 0.58 0.58 0.55 0.49 0.43 0.37 0.33 0.39 0.46 0.52 0.56 0.59 0.57 0.49 0.45 0.43 0.44 0.44 0.42 0.44
0.27 0.27 0.25 0.24 0.22 0.22 0.23 0.24 0.24 0.26 0.28 0.27 0.25 0.26 0.28 0.31 0.36 0.43 0.51 0.58 0.62 0.68 0.72 0.73 0.69 0.55 0.45 0.39 0.36 0.36 0.38 0.39 0.41 0.46 0.49 0.48 0.41 0.40 0.42 0.42 0.38 0.38 0.40